,

(GMT )
Osoyoos

Weather History for CWYY - October, 2011

Change the Weather History Date:

Monday, October 24, 2011

  Actual Average Record
Temperature  
Mean Temperature 44 °F -  
Max Temperature 57 °F - - ()
Min Temperature 31 °F - - ()
Degree Days  
Heating Degree Days 21    
Moisture  
Dew Point 32 °F    
Average Humidity 69    
Maximum Humidity 94    
Minimum Humidity 21    
Precipitation  
Precipitation 0.01 in - - ()
Sea Level Pressure  
Sea Level Pressure 30.16 in    
Wind  
Wind Speed 2 mph ()    
Max Wind Speed 9 mph    
Max Gust Speed -    
T = Trace of Precipitation, MM = Missing Value Source: Averaged Metar Reports

Daily Weather History Graph

Daily Weather History Graph

Search for Another Location

Airport or City:

Trip Planner

Search our weather history database for the weather conditions in past years. The results will help you decide how hot, cold, wet, or windy it might be!

Date:

Astronomy

Oct. 24, 2011 Rise Set
Actual Time 7:32 AM PDT 5:50 PM PDT
Civil Twilight 6:59 AM PDT 6:23 PM PDT
Nautical Twilight 6:22 AM PDT 7:00 PM PDT
Astronomical Twilight 5:45 AM PDT 7:36 PM PDT
Moon 4:47 AM PDT (10/24) 4:25 PM PDT (10/24)
Length of Visible Light 11h 23m
Length of Day
10h 18m
Waning Crescent, 6% of the Moon is Illuminated
Oct 24
Waning Crescent
Oct 26
New
Nov 2
First Quarter
Nov 10
Full
Nov 18
Last Quarter

Hourly Weather History & Observations

Time (PDT) Temp. Windchill Dew Point Humidity Pressure Visibility Wind Dir Wind Speed Gust Speed Precip Events Conditions
12:00 AM 36.0 °F - 34.2 °F 93% 30.05 in - ENE 1.2 mph - N/A   Unknown
1:00 AM 36.0 °F - 33.8 °F 92% 30.06 in - ENE 1.2 mph - N/A   Unknown
2:00 AM 34.7 °F - 31.3 °F 87% 30.06 in - ENE 1.2 mph - N/A   Unknown
3:00 AM 35.6 °F - 33.4 °F 92% 30.05 in - NNE 1.2 mph - N/A   Unknown
4:00 AM 35.1 °F - 33.3 °F 93% 30.06 in - ENE 2.3 mph - N/A   Unknown
5:00 AM 35 °F - 33 °F 89% 30.08 in - ENE 1.2 mph - -  
5:00 AM 35.4 °F - 32.9 °F 91% 30.08 in - ENE 1.2 mph - N/A   Unknown
6:00 AM 33.8 °F - 31.8 °F 92% 30.09 in - ENE 1.2 mph - N/A   Unknown
7:00 AM 31.8 °F - 30.2 °F 94% 30.12 in - East 1.2 mph - N/A   Unknown
8:00 AM 33.3 °F - 30.7 °F 90% 30.14 in - ESE 1.2 mph - N/A   Unknown
9:00 AM 37.9 °F 35.5 °F 32.9 °F 82% 30.16 in - SSE 3.5 mph - 0.01 in   Unknown
10:00 AM 40.5 °F - 35.1 °F 81% 30.17 in - East 1.2 mph - N/A   Unknown
11:00 AM 46 °F - 35 °F 53% 30.18 in - West 2.3 mph - -  
11:00 AM 46.4 °F - 34.5 °F 63% 30.18 in - West 2.3 mph - N/A   Unknown
12:00 PM 48.4 °F - 35.4 °F 61% 30.18 in - SSW 3.5 mph - N/A   Unknown
1:00 PM 52.7 °F - 31.6 °F 45% 30.17 in - WNW 2.3 mph - N/A   Unknown
2:00 PM 53.4 °F - 35.8 °F 51% 30.17 in - NNW 5.8 mph - N/A   Unknown
3:00 PM 54.7 °F - 29.7 °F 38% 30.17 in - NNW 4.6 mph - N/A   Unknown
4:00 PM 56.8 °F - 29.3 °F 35% 30.17 in - NW 5.8 mph - N/A   Unknown
5:00 PM 55 °F - 27 °F 21% 30.18 in - North 9.2 mph - -  
5:00 PM 54.7 °F - 26.6 °F 34% 30.18 in - North 9.2 mph - N/A   Unknown
6:00 PM 51.1 °F - 31.6 °F 47% 30.21 in - NW 4.6 mph - N/A   Unknown
7:00 PM 50.4 °F - 30.9 °F 47% 30.23 in - NW 3.5 mph - N/A   Unknown
8:00 PM 43.7 °F 42.1 °F 33.3 °F 67% 30.26 in - NE 3.5 mph - N/A   Unknown
9:00 PM 39.7 °F - 31.8 °F 73% 30.28 in - NNE 1.2 mph - N/A   Unknown
10:00 PM 41.7 °F 39.8 °F 32.9 °F 71% 30.30 in - ENE 3.5 mph - N/A   Unknown
11:00 PM 37 °F - 30 °F 69% 30.31 in - ENE 2.3 mph - -  
11:00 PM 37.0 °F - 30.4 °F 77% 30.31 in - ENE 2.3 mph - N/A   Unknown